Location: Hoover
(45.1124°N, 103.2678°W)
Time: 04:22:58
(UTC+00:00)

N. Korean satellite - Pass Details

Date: 01 December 2020
Orbit: 453 x 502 km, 97.2° (Epoch: 16 January)

Event Time Altitude Azimuth Distance (km) Brightness Sun altitude
Rises 13:33:12 0° 354° (N) 2,563 9.9 -6.9°
Reaches altitude 10° 13:35:53 10° 332° (NNW) 1,687 8.8 -6.5°
Maximum altitude 13:38:06 16° 294° (WNW) 1,371 8.2 -6.1°
Drops below altitude 10° 13:40:20 10° 257° (WSW) 1,693 8.9 -5.8°
Sets 13:43:02 0° 234° (SW) 2,578 10.0 -5.3°
